Regional Weather Roundup
Issued by NWS Wakefield, VA

Home | Current Version | Previous Version | Graphics & Text | Print | Product List | Glossary On
Versions: 1 2 3 4 5 6 7 8 9 10 11 12 13 14 15 16 17 18 19 20 21 22 23 24 25 26 27 28 29 30 31 32 33 34 35 36 37 38 39 40 41 42 43 44 45 46 47 48 49 50
000
ASUS41 KAKQ 290010
RWRAKQ

REGIONAL WEATHER ROUNDUP
NATIONAL WEATHER SERVICE WAKEFIELD VA
800 PM EDT MON JUL 28 2014

Note: "fair" indicates few or no clouds below 12,000 feet with no
significant weather and/or obstructions to visibility. * = Denotes
station may not report precipitation (e.g., rain,snow,etc.),
thunder or fog.

VAZ042-051-052>054-056-290100-
NORTHERN VIRGINIA

CITY           SKY/WX    TMP DP  RH WIND       PRES   REMARKS
WASH NATIONAL  MOCLDY    79  56  45 W12G25    29.75R
DULLES         MOCLDY    74  57  55 W12G22    29.77R
FORT BELVOIR   MOCLDY    76  58  52 W9        29.76R
QUANTICO       CLEAR     77  57  50 NW12      29.77R
FREDERICKSBRG* PTCLDY    79  57  47 W10G16    29.77R
STAFFORD*      CLEAR     76  57  52 W9G21     29.82R
WARRENTON      CLEAR     74  64  69 W9G17     29.79R
CULPEPER*      CLEAR    N/A N/A N/A NW8       29.80R
MANASSAS*      CLOUDY    77  59  53 W9        29.78R
LEESBURG*      CLOUDY    73  63  68 NW16      29.79R
WINCHESTER     CLOUDY    70  57  64 NW16      29.82R
$$

VAZ048-049-060>072-079>083-290100-
CENTRAL AND SOUTH CENTRAL VIRGINIA...AND NORTH CENTRAL NORTH CAROLINA

CITY           SKY/WX    TMP DP  RH WIND       PRES   REMARKS
RICHMOND       PTCLDY    82  56  40 W8        29.77R
CHESTERFIELD*  CLEAR    N/A N/A N/A W9        29.80R
HANOVER        CLEAR     79  57  46 W8        29.79R
TAPPAHANNOCK*  CLEAR     79  51  37 W6        29.77R
CHARLOTTSVILLE PTCLDY    74  56  53 NW5       29.82R
ORANGE*        PTCLDY    73  55  53 W8        29.82R
LOUISA*        CLEAR     75  55  50 W9        29.80R
FARMVILLE*     PTCLDY    77  54  44 CALM      29.80R
SOUTH HILL*    CLEAR     81  61  50 NW3       29.87R
ROANOKE RAPIDS NOT AVBL
RALEIGH        PTCLDY    82  57  42 VRB3      29.83R
$$

VAZ088>098-290100-
SOUTHEAST VIRGINIA

CITY           SKY/WX    TMP DP  RH WIND       PRES   REMARKS
NORFOLK        CLEAR     82  59  45 W7        29.77R
VIRGINIA BEACH PTCLDY    81  60  48 W12       29.76R
NORFOLK NAVAL  PTCLDY    83  61  47 W8        29.79R
WEST POINT*    PTCLDY    82  55  38 W8        29.78R
NEWPORT NEWS   PTCLDY    85  58  39 W8        29.77R
LANGLEY AFB    CLEAR     80  61  53 W7        29.76R
FORT EUSTIS    PTCLDY    81  61  49 W6        29.76R
WILLIAMSBURG*  CLEAR     82  63  51 W8        29.78R
FRANKLIN*      CLEAR     79  57  47 W6        29.79R
WAKEFIELD      CLEAR     80  60  50 CALM      29.79R
$$

VAZ020-022-025-037-045-290100-
WESTERN AND SOUTHWEST VIRGINIA

CITY           SKY/WX    TMP DP  RH WIND       PRES   REMARKS
STAUNTON*      MOCLDY    71  55  56 W7        29.88R
HOT SPRINGS VA CLOUDY    57  50  77 NW9G20    29.99R
LYNCHBURG      CLEAR     73  56  54 VRB3      29.87R
DANVILLE       PTCLDY    79  57  46 NW10      29.85R
MARTINSVILLE   PTCLDY    77  57  50 NW9       29.90R
ROANOKE        PTCLDY    72  53  51 NW14G22   29.90R
BLACKSBURG     CLEAR     66  57  72 NW10G18   29.97R
DUBLIN*        CLOUDY    69  57  65 NW8       29.96R
MARION*        PTCLDY   N/A N/A N/A NW15G26   30.00R
HILLSVILLE*    MOCLDY    67  54  61 NW15      29.97R
RICHLANDS*     CLOUDY    67  57  71 NW7       30.00S
WISE*          MOCLDY    64  55  72 NW7       30.03S
ABINGDON*      PTCLDY    70  57  63 N9        29.99R
$$

MDZ021>025-VAZ099-100-290100-
SOUTHERN MARYLAND AND THE DELMARVA PENINSULA

CITY           SKY/WX    TMP DP  RH WIND       PRES   REMARKS
PATUXENT RIVER PTCLDY    78  56  46 W12       29.73R
BAY BRIDGE APT   N/A     77  57  50 W9G17     29.72R
LEONARDTOWN    PTCLDY    77  55  47 W6        29.75R
DOVER          CLEAR     77  60  56 W12       29.68R
GEORGETOWN     CLOUDY    79  58  48 S7        29.71R
EASTON         MOCLDY    82  59  44 NW8       29.75R
CAMBRIDGE      CLEAR     79  55  44 W6        29.71R
SALISBURY      NOT AVBL
OCEAN CITY     CLOUDY    79  60  52 W5        29.71R
WALLOPS ISLAND CLOUDY    81  63  54 W6        29.73R
ACCOMACK*        N/A     81  63  54 W7        29.73R
$$

NCZ012>017-030>032-290100-
EASTERN NORTH CAROLINA

CITY           SKY/WX    TMP DP  RH WIND       PRES   REMARKS
ELIZABETH CITY CLEAR     78  65  63 W9        29.78R
AHOSKIE*       PTCLDY    76  67  72 CALM      29.80R
EDENTON*       CLEAR     82  62  51 W5        29.79S
CURRITUCK*     CLEAR     82  60  46 W5        29.79R
KILL DEVIL HLS CLEAR     83  66  57 W7        29.78R
MANTEO         NOT AVBL
CAPE HATTERAS  CLOUDY    82  80  94 SW10      29.79R FOG
GOLDSBORO      CLEAR     84  67  57 N5        29.79R
WASHINGTON     CLEAR     81  67  62 N3        29.80R
GREENVILLE     CLEAR     81  70  69 CALM      29.83R
NEW BERN       MOCLDY    78  73  84 CALM      29.82R
WILMINGTON     CLOUDY    75  71  87 S6        29.81R
$$

VAZ048-290100-
ELSEWHERE

CITY           SKY/WX    TMP DP  RH WIND       PRES   REMARKS
HARRISBURG PA  CLOUDY    67  62  84 NW12      29.74R
BALTIMORE      MOCLDY    76  58  53 W14G22    29.72R
ANNAPOLIS      PTCLDY    78  58  49 W9G18     29.72R
ANDREWS AFB    MOCLDY    77  58  50 W14G25    29.75R
WILMINGTON DE  MOCLDY    73  59  61 NW15G26   29.71R
PHILADELPHIA   LGT RAIN  78  59  51 NW20G30   29.67R
WILDWOOD NJ*   PTCLDY    79  61  53 W14       29.70R
ATLANTIC CITY  PTCLDY    78  58  49 W8        29.66R
HENDERSON NC   CLEAR     77  58  50 CALM      29.84R
GREENSBORO     PTCLDY    80  56  43 NW7       29.86R
ROCKY MOUNT    CLEAR     81  63  54 CALM      29.81R
FAYETTEVILLE   PTCLDY    89  57  33 NW12      29.79R
CHARLOTTE      PTCLDY    80  56  43 N9        29.87R
$$

VAZ100-290100-
MARINE

STATION/POSITION TIME  TEMP    WIND        PRES    WAVE   SWELL
                       AIR SEA DIR/SP/G            HT/PER HT/PER
                 (UTC) (F)     (DEG/KT/KT) (MB)    (FT/S) (FT/S)
44066 TX TWR #4  0000   77 75  250/ 17/ 21 1003.1R   5/ 7   3/ 7
CAPE MAY NJ      0000   78 79  280/ 13/ 19 1004.6R
LEWES DE         0000   80 73  280/ 10/ 13 1005.1R
15NM E FENWICK I 0000   78 74              1005.7R   4/ 7
OCEAN-CITY-INLET 0000   80 71  300/  5/  7 1005.5R
WACHAPREAGUE VA  0000   80 83  250/  3/  5 1006.8R
THOMAS POINT MD  0000   78 79  280/ 16/ 19 1006.8R
GOOSES REEF MD   0000   80     300/ 16/ 19 1006.7R
COVE POINT MD    0000   79     310/ 11/ 15 1006.4R
SOLOMONS ISLAND  0000      81                N/A
BISHOPS HEAD MD  0000   81 81  290/ 16/ 20 1006.1R
PINEY POINT MD   0000          310/ 24/ 27   N/A
POTOMAC MD       0000   82     290/ 19/ 23 1005.7R
CAMBRIDGE MD     0000   80 80  270/  9/ 13 1005.9R
LEWISETTA VA     0000   81 81  300/ 11/ 15 1006.9R
RAPPAHANNOCK LGT 0000          270/ 17/ 19 1007.6R
STINGRAY PT      0000   82     300/ 17/ 21 1007.7R
YORK RVR RNG VA  0000   82     280/ 14/ 16 1006.9R
YORKTOWN VA      0000   82 81  260/ 10/ 12 1007.3R
JAMESTOWN VA     0000   81     320/ 16/ 19   N/A
DOMINION TERM VA 0000   83     280/ 11/ 13 1007.9R
KIPTOPEKE VA     0000      83  290/ 17/ 20   N/A
CHES BAY BRIDGE  0000   82 79  250/ 13/ 17 1007.3R
CAPE HENRY VA    0000   83     260/ 11/ 14 1006.6R
WILLOUBY STN VA  0000          270/ 15/ 17 1007.3R
S CRANEY ISL VA  0000          260/  5/ 10 1008.1R
CAPE HENRY BUOY  0000      78                N/A     3/ 3
1ST LANDING BUOY 0000   83     280/ 14/ 17 1007.4R
CAPE CHARLES BUO 0000      76                N/A     3/ 4
OFFSHORE WE BUOY 0000      78                N/A     4/ 6
64NM E OF VA BCH 0000   80 79  260/ 10/ 14 1007.3R   4/ 7   3/ 7
DUCK PIER NC     0000   83 60  270/ 10/ 12 1007.5R
44056 DUCK FRF   0000                        N/A     1/ 8
OREGON INLET NC  0000   84 83  300/ 10/ 13 1008.3R
HATTERAS NC      0000   81 82  220/  6/ 11 1009.1F
DIAMOND SHLS NC  0000          VRB 12/ 16  1008.7R   4/ 8   3/ 8
CAPE LOOKOUT NC  2300   76     340/ 19/ 21 1010.0R
$$


USA.gov is the U.S. government's official web portal to all federal, state and local government web resources and services.